This is the latest recevied weather packets stored in our database for station/object KF4ERV-4. If no packets are shown the sender has not sent any weather packets the latest 10 day(s).
| Time | Temp. | Humidity | Pressure | Rain* | Wind** | Luminosity | Snow |
|---|---|---|---|---|---|---|---|
| 1777425575 | 21.11° C | 53% | 1014 hPa | 0 mm | - | - | - |
| 1777425534 | 21.11° C | 53% | 1014 hPa | 0 mm | - | - | - |
| 1777425279 | 21.11° C | 53% | 1014 hPa | 0 mm | - | - | - |
| 1777425244 | 21.67° C | 53% | 1014 hPa | 0 mm | - | - | - |
| 1777424984 | 21.67° C | 53% | 1014 hPa | 0 mm | - | - | - |
| 1777424955 | 21.67° C | 54% | 1014 hPa | 0 mm | - | - | - |
| 1777424674 | 21.67° C | 54% | 1014 hPa | 0 mm | - | - | - |
| 1777424614 | 21.67° C | 59% | 1014 hPa | 0 mm | - | - | - |
| 1777424374 | 21.67° C | 58% | 1014 hPa | 0 mm | - | - | - |
| 1777424169 | 21.67° C | 59% | 1014 hPa | 0 mm | - | - | - |
| 1777424079 | 21.67° C | 59% | 1014 hPa | 0 mm | - | - | - |
| 1777423782 | 21.67° C | 62% | 1014 hPa | 0 mm | - | - | - |
| 1777423475 | 21.67° C | 62% | 1014 hPa | 0 mm | - | - | - |
| 1777423214 | 22.22° C | 63% | 1014 hPa | 0 mm | - | - | - |
| 1777423178 | 22.22° C | 63% | 1014 hPa | 0 mm | - | - | - |
| 1777422923 | 22.22° C | 63% | 1014 hPa | 0 mm | - | - | - |
| 1777422880 | 22.22° C | 63% | 1014 hPa | 0 mm | - | - | - |
| 1777422657 | 22.22° C | 68% | 1013.2 hPa | 0 mm | - | - | - |
| 1777422633 | 22.22° C | 65% | 1013.9 hPa | 0 mm | - | - | - |
| 1777422572 | 22.22° C | 65% | 1013.9 hPa | 0 mm | - | - | - |
| 1777422343 | 22.22° C | 67% | 1013.5 hPa | 0 mm | - | - | - |
| 1777422275 | 22.22° C | 67% | 1013.5 hPa | 0 mm | - | - | - |
| 1777422035 | 22.22° C | 68% | 1013.2 hPa | 0 mm | - | - | - |
| 1777421979 | 22.22° C | 68% | 1013.2 hPa | 0 mm | - | - | - |
| 1777421870 | 22.78° C | 71% | 1014 hPa | 0 mm | - | - | - |
* Rain latest hour (hover to see other rain measurements)
** Current wind speed in m/s (hover to see current wind gust speed)